N7QNM-13 Weather Reports


time (UTC)temp
C
wind
direction
speed
KPH
gust
KPH
rain 1hr
cm
rain 24hr
cm
rain mn
cm
humidity
%
barometer
mb
20260906225045 19 286 8.0 11.3 0.00 0.38 0.38 62 1015.0
20260906224045 18 279 9.7 16.1 0.00 0.38 0.38 63 1015.1
20260906223045 18 287 9.7 12.9 0.00 0.38 0.38 66 1015.1
20260906222105 18 293 9.7 14.5 0.00 0.38 0.38 65 1015.2
20260906221045 18 298 9.7 14.5 0.00 0.38 0.38 66 1015.2
20260906220045 18 322 8.0 12.9 0.00 0.38 0.38 64 1015.2
20260906215046 18 287 9.7 12.9 0.00 0.38 0.38 64 1015.1
20260906214125 18 298 9.7 14.5 0.00 0.38 0.38 66 1015.2
20260906213045 17 302 11.3 16.1 0.00 0.38 0.38 67 1015.3
20260906212045 17 273 11.3 17.7 0.00 0.38 0.38 70 1015.2
20260906211046 17 272 11.3 16.1 0.00 0.38 0.38 68 1015.3
20260906210107 17 312 11.3 14.5 0.00 0.38 0.38 68 1015.3
20260906205048 17 294 9.7 12.9 0.00 0.38 0.38 69 1015.3
20260906204046 17 273 11.3 16.1 0.00 0.38 0.38 69 1015.3
20260906203046 17 286 12.9 19.3 0.00 0.38 0.38 70 1015.4
20260906202046 17 274 12.9 17.7 0.00 0.38 0.38 71 1015.4
20260906201046 16 273 14.5 17.7 0.00 0.38 0.38 75 1015.3
20260906200048 16 280 11.3 16.1 0.00 0.38 0.38 76 1015.4
20260906195047 16 285 12.9 17.7 0.00 0.38 0.38 76 1015.4
20260906194048 17 270 14.5 17.7 0.00 0.38 0.38 75 1015.4
20260906193048 17 280 12.9 19.3 0.00 0.38 0.38 77 1015.4
20260906192047 16 288 12.9 16.1 0.00 0.38 0.38 78 1015.6
20260906191047 16 292 9.7 14.5 0.00 0.38 0.38 83 1015.7
20260906190108 15 296 11.3 17.7 0.00 0.38 0.38 83 1015.7
20260906185047 15 289 11.3 14.5 0.00 0.38 0.38 84 1015.8
20260906184047 15 286 11.3 16.1 0.00 0.38 0.38 84 1015.8
20260906183048 15 291 9.7 17.7 0.00 0.38 0.38 83 1015.8
20260906182108 15 261 9.7 12.9 0.00 0.38 0.38 86 1015.7
20260906181049 14 284 8.0 11.3 0.00 0.38 0.38 90 1015.8
20260906180048 13 0.0 0.0 0.00 0.38 0.38 92 1015.9
20260906175048 12 254 8.0 14.5 0.00 0.38 0.38 92 1015.7
20260906174050 12 257 4.8 8.0 0.00 0.38 0.38 92 1015.6
20260906173048 12 278 4.8 6.4 0.00 0.38 0.38 92 1015.6
20260906172110 12 264 3.2 4.8 0.00 0.38 0.38 92 1015.6
20260906171049 12 273 1.6 4.8 0.00 0.38 0.38 92 1015.7
20260906170048 12 248 3.2 4.8 0.00 0.38 0.38 91 1015.8
20260906165049 12 220 3.2 4.8 0.03 0.38 0.38 91 1015.7
20260906164049 12 203 0.0 1.6 0.08 0.38 0.38 91 1015.9
20260906163050 12 225 0.0 1.6 0.18 0.38 0.38 91 1015.9
20260906162050 12 0.0 0.0 0.23 0.38 0.38 91 1015.9
20260906161049 12 293 0.0 3.2 0.28 0.38 0.38 91 1015.9
20260906160050 12 0.0 0.0 0.33 0.38 0.38 91 1016.1
20260906155049 12 0.0 0.0 0.33 0.36 0.36 91 1016.2
20260906154049 11 0.0 0.0 0.28 0.30 0.30 90 1016.2
20260906153131 11 104 0.0 1.6 0.20 0.23 0.23 90 1016.2
20260906152050 11 0.0 0.0 0.15 0.15 0.15 90 1016.1
20260906151050 11 224 0.0 3.2 0.10 0.10 0.10 90 1016.0
20260906150050 11 0.0 0.0 0.05 0.08 0.08 90 1015.9
20260906145111 11 114 0.0 3.2 0.03 0.03 0.03 89 1015.7
20260906144050 11 1 1.6 3.2 0.03 0.03 0.03 89 1015.5
20260906143050 11 180 0.0 1.6 0.00 0.00 0.00 89 1015.4
20260906142050 11 0.0 0.0 0.00 0.00 0.00 89 1015.3
20260906141110 11 0.0 0.0 0.00 0.00 0.00 89 1015.2
20260906140051 11 315 0.0 3.2 0.00 0.00 0.00 89 1015.1
20260906135051 11 203 0.0 1.6 0.00 0.00 0.00 89 1015.0
20260906134051 11 0.0 0.0 0.00 0.00 0.00 89 1014.8
20260906133113 11 0.0 0.0 0.00 0.00 0.00 89 1014.8
20260906132051 11 232 1.6 3.2 0.00 0.00 0.00 89 1014.6
20260906131113 11 248 0.0 1.6 0.00 0.00 0.00 90 1014.7
20260906130111 11 0.0 0.0 0.00 0.00 0.00 90 1014.8
20260906125052 11 0.0 0.0 0.00 0.00 0.00 90 1014.9
20260906124052 11 0.0 0.0 0.00 0.00 0.00 90 1014.8
20260906123051 11 0.0 0.0 0.00 0.00 0.00 90 1015.0
20260906122054 11 293 0.0 1.6 0.00 0.00 0.00 90 1015.1
20260906121052 11 270 0.0 3.2 0.00 0.00 0.00 90 1015.2
20260906120053 10 0.0 0.0 0.00 0.00 0.00 90 1015.3
20260906115052 10 0.0 0.0 0.00 0.00 0.00 90 1015.3
20260906114052 10 270 0.0 1.6 0.00 0.00 0.00 90 1015.3
20260906113052 10 309 0.0 1.6 0.00 0.00 0.00 90 1015.2
20260906112052 10 0.0 0.0 0.00 0.00 0.00 90 1015.3
20260906111052 10 0.0 0.0 0.00 0.00 0.00 90 1015.0
20260906110053 10 0.0 0.0 0.00 0.00 0.00 90 1015.1
20260906105053 10 0.0 0.0 0.00 0.00 0.00 90 1015.2
20260906104053 10 0.0 0.0 0.00 0.00 0.00 90 1015.2
20260906103053 10 0.0 0.0 0.00 0.00 0.00 90 1015.1
20260906102053 10 0.0 0.0 0.00 0.00 0.00 89 1015.1
20260906101053 10 286 0.0 4.8 0.00 0.00 0.00 89 1015.1
20260906100054 10 0.0 0.0 0.00 0.00 0.00 89 1014.9
20260906095053 10 0.0 0.0 0.00 0.00 0.00 89 1015.0
20260906094055 10 0.0 0.0 0.00 0.00 0.00 89 1015.1
20260906093054 10 0.0 0.0 0.00 0.00 0.00 89 1015.2
20260906092055 10 0.0 0.0 0.00 0.00 0.00 89 1015.4
20260906091054 9 0.0 0.0 0.00 0.03 0.00 88 1015.4
20260906090055 9 188 0.0 3.2 0.00 0.08 0.00 88 1015.4
20260906085136 8 180 0.0 3.2 0.00 0.13 0.00 87 1015.4
20260906084056 8 0.0 0.0 0.00 0.13 0.00 87 1015.5
20260906083054 8 0.0 0.0 0.00 0.13 0.00 87 1015.4
20260906082114 9 0.0 0.0 0.00 0.13 0.00 86 1015.6
20260906081056 9 0.0 0.0 0.00 0.13 0.00 86 1015.5
20260906080055 9 0.0 0.0 0.00 0.13 0.00 85 1015.5
20260906075115 10 0.0 0.0 0.00 0.13 0.00 85 1015.6
20260906074055 10 158 0.0 3.2 0.00 0.13 0.00 85 1015.6
20260906073055 10 0.0 0.0 0.00 0.13 0.00 84 1015.6
20260906072057 10 0.0 0.0 0.00 0.13 0.00 84 1015.6
20260906071117 10 0.0 0.0 0.00 0.13 0.00 83 1015.7
20260906070058 11 0.0 0.0 0.00 0.13 0.00 83 1015.7
20260906065055 11 0.0 0.0 0.00 0.13 0.13 82 1015.7
20260906064055 11 0.0 0.0 0.00 0.13 0.13 82 1015.7
20260906063057 12 0.0 0.0 0.00 0.13 0.13 81 1015.7
20260906062056 12 301 1.6 3.2 0.00 0.13 0.13 81 1015.7
20260906061056 12 234 1.6 3.2 0.00 0.13 0.13 81 1015.7
20260906060056 12 186 1.6 4.8 0.00 0.13 0.13 80 1015.8
20260906055056 12 143 1.6 3.2 0.00 0.13 0.13 79 1015.9
20260906054056 12 0 0.0 3.2 0.00 0.13 0.13 78 1015.9
20260906053057 12 0.0 0.0 0.00 0.13 0.13 78 1015.9
20260906052058 12 0.0 0.0 0.00 0.13 0.13 77 1016.0
20260906051056 12 0.0 0.0 0.00 0.13 0.13 76 1016.1
20260906050057 13 0.0 0.0 0.00 0.13 0.13 75 1016.0
20260906045058 13 0.0 0.0 0.00 0.13 0.13 74 1016.1
20260906044058 13 0.0 0.0 0.00 0.13 0.13 73 1016.2
20260906043057 13 270 0.0 3.2 0.00 0.13 0.13 72 1016.2
20260906042057 14 267 0.0 1.6 0.00 0.13 0.13 70 1016.1
20260906041057 15 225 0.0 3.2 0.00 0.13 0.13 68 1016.1
20260906040059 15 199 1.6 4.8 0.00 0.13 0.13 67 1016.1
20260906035119 16 180 3.2 3.2 0.00 0.13 0.13 65 1015.9
20260906034058 16 195 1.6 3.2 0.00 0.13 0.13 64 1015.8
20260906033058 16 197 1.6 3.2 0.00 0.13 0.13 64 1015.8
20260906032058 16 184 1.6 3.2 0.00 0.13 0.13 64 1015.7
20260906031058 16 179 4.8 6.4 0.00 0.13 0.13 63 1015.6
20260906030100 17 182 3.2 4.8 0.00 0.13 0.13 62 1015.6
20260906025058 17 194 3.2 6.4 0.00 0.13 0.13 61 1015.5
20260906024058 18 227 3.2 4.8 0.00 0.13 0.13 60 1015.4
20260906023058 19 201 3.2 4.8 0.00 0.13 0.13 57 1015.5
20260906022140 20 220 1.6 4.8 0.00 0.13 0.13 54 1015.5
20260906021059 21 250 3.2 6.4 0.00 0.13 0.13 52 1015.5
20260906020059 21 245 3.2 4.8 0.00 0.13 0.13 52 1015.6
20260906015059 22 271 6.4 9.7 0.00 0.13 0.13 50 1015.7
20260906014059 22 283 4.8 6.4 0.00 0.13 0.13 49 1015.6
20260906013119 22 293 4.8 8.0 0.00 0.13 0.13 49 1015.5
20260906012059 22 286 6.4 8.0 0.00 0.13 0.13 48 1015.5
20260906011059 22 274 6.4 11.3 0.00 0.13 0.13 48 1015.5
20260906010100 22 285 6.4 8.0 0.00 0.13 0.13 48 1015.4
20260906005100 23 279 8.0 12.9 0.00 0.13 0.13 48 1015.4
20260906004100 23 288 9.7 12.9 0.00 0.13 0.13 47 1015.5
20260906003100 23 278 8.0 11.3 0.00 0.13 0.13 47 1015.5
20260906002100 23 301 6.4 8.0 0.00 0.13 0.13 45 1015.5
20260906001102 23 291 8.0 9.7 0.00 0.13 0.13 47 1015.6
20260906000120 23 291 4.8 8.0 0.00 0.13 0.13 46 1015.6
20260905235120 23 287 4.8 6.4 0.00 0.13 0.13 46 1015.6
20260905234100 23 287 6.4 9.7 0.00 0.13 0.13 47 1015.7
20260905233102 22 284 8.0 11.3 0.00 0.13 0.13 51 1015.7
20260905232102 22 284 9.7 14.5 0.00 0.13 0.13 51 1015.9
20260905231121 22 266 8.0 14.5 0.00 0.13 0.13 52 1015.9